Regional Weather Roundup
Issued by NWS

Home | Current Version | Previous Version | Graphics & Text | Print | Product List | Glossary On
Versions: 1 2 3 4 5 6 7 8 9 10 11 12 13 14 15 16 17 18 19 20 21 22 23 24 25 26 27 28 29 30 31 32 33 34 35 36 37 38 39 40 41 42 43 44 45 46 47 48 49 50
000
ASUS43 KMPX 311701
RWRMN
WEATHER ROUNDUP FOR MINNESOTA
NATIONAL WEATHER SERVICE TWIN CITIES/CHANHASSEN MN
1200 PM CDT FRI JUL 31 2015


NOTE: "FAIR" INDICATES FEW OR NO CLOUDS BELOW 12,000 FEET WITH NO
SIGNIFICANT WEATHER AND/OR OBSTRUCTIONS TO VISIBILITY. N/A MEANS
CURRENT SKY AND/OR WEATHER CONDITIONS ARE NOT AVAILABLE.

MNZ060>063-068>070-311800-
   Twin Cities Metro

CITY           SKY/WX    TMP DP  RH WIND       PRES   REMARKS
TWIN CITIES    SUNNY     78  50  37 NW21G30   30.07S
ST PAUL        MOSUNNY   79  51  37 NW17G29   30.06S
CRYSTAL        SUNNY     80  52  37 NW15G25   30.06S
BLAINE         SUNNY     79  52  38 W16G26    30.07R
LAKEVILLE      SUNNY     75  54  46 NW13G23   30.08S
EDEN PRAIRIE   SUNNY     79  51  37 NW17G29   30.07S
SOUTH ST PAUL  SUNNY     78  47  32 NW23G30   30.06S
LAKE ELMO      FAIR      77  54  44 NW16G23   30.07S
$$
MNZ001>005-007-008-013>017-022>024-027-028-311800-
   Northwest Minnesota

CITY           SKY/WX    TMP DP  RH WIND       PRES   REMARKS
BEMIDJI        SUNNY     74  50  42 W22G30    30.04S
HALLOCK        SUNNY     75  54  46 NW14G22   30.02S
ROSEAU         SUNNY     73  57  56 W15G21    30.00S
WARROAD        MOSUNNY   73  57  56 W14G23    29.99S
THIEF RVR FALL SUNNY     73  54  49 W14       30.04F
CROOKSTON      SUNNY     75  54  46 NW18G24   30.06S
FOSSTON        SUNNY     73  52  46 W13G18    30.07S
DETROIT LAKES  SUNNY     73  50  43 NW20      30.11S
MOORHEAD       SUNNY     75  55  50 NW13G18   30.10S
PARK RAPIDS    SUNNY     76  50  40 NW17      30.07F
MAHNOMEN       FAIR      73  55  53 W13G20    30.08S
$$
MNZ006-009>011-018-025>026-311800-
   North Central Minnesota

CITY           SKY/WX    TMP DP  RH WIND       PRES   REMARKS
BAUDETTE       SUNNY     73  54  51 W17G26    29.97F
FLAG ISLAND    MOSUNNY   70  54  56 W21       29.95S
INTL FALLS     MOSUNNY   71  57  61 W17G25    29.94F
WASKISH        MOSUNNY   72  55  56 W15G23    30.00S
BIG FORK       MOSUNNY   73  50  43 W10G20    29.99F
LONGVILLE      SUNNY     73  54  49 W12G21    30.04S
GRAND RAPIDS   MOSUNNY   73  52  46 NW17G28   30.02S
CRANE LAKE     PTSUNNY   68  55  64 W9        29.96S
ORR            PTSUNNY   72  52  49 NW12G21   29.94F
COOK           PTSUNNY   70  54  56 W10G22    29.96F
WALKER         FAIR      73  51  46 NW18G25   30.04S
$$
MNZ012-019>021-037-311800-
   Northeast Minnesota

CITY           SKY/WX    TMP DP  RH WIND       PRES   REMARKS
DULUTH         PTSUNNY   72  52  49 NW13G28   29.99R
ELY            MOSUNNY   68  52  56 NW12G23   29.94F
HIBBING        PTSUNNY   72  52  49 NW21G28   29.98F
EVELETH        MOSUNNY   72  52  49 W15G24    29.99S
DULUTH HARBOR  PTSUNNY   75  55  50 NW18      29.97S
TWO HARBORS    PTSUNNY   75  57  53 W8G18     29.94S
SILVER BAY     PTSUNNY   73  52  46 W6G17     29.93S
GRAND MARAIS     N/A     72  52  49 MISG      29.88S
G MARAIS ARPRT   N/A     63  50  63 W10G16    29.93R
$$
MNZ029>031-032-039>041-046>048-054>057-064-311800-
   West Central Minnesota

CITY           SKY/WX    TMP DP  RH WIND       PRES   REMARKS
FERGUS FALLS   SUNNY     75  55  50 NW13      30.10S
WHEATON        SUNNY     75  54  46 W7        30.13S
MORRIS         SUNNY     79  57  47 NW12      30.11S
ALEXANDRIA     SUNNY     76  52  43 NW13G21   30.13S
ELBOW LAKE     FAIR      75  56  52 NW9       30.12R
WADENA         SUNNY     75  50  41 NW16G22   30.08F
GLENWOOD       SUNNY     75  54  46 NW15G22   30.12F
APPLETON       SUNNY     81  48  32 NW12      30.12S
BENSON         SUNNY     79  48  34 N15       30.12S
ORTONVILLE     SUNNY     79  52  38 NW8       30.13S
MADISON        SUNNY     79  50  36 N7        30.13S
WILLMAR        FAIR      79  55  44 NW12      30.13S
$$
MNZ033>034-036-042>043-049>051-058-059-311800-
   Central Minnesota

CITY           SKY/WX    TMP DP  RH WIND       PRES   REMARKS
ST CLOUD       SUNNY     78  50  37 NW20G30   30.08S
SAUK CENTRE    FAIR      75  52  44 W16G23    30.11S
PAYNESVILLE    SUNNY     75  51  42 W13G18    30.11S
AITKIN         MOSUNNY   75  55  50 NW9G16    30.03S
PINE RIVER     MOSUNNY   73  52  46 W9G22     30.08S
BRAINERD       SUNNY     76  50  40 W17G28    30.06S
STAPLES        SUNNY     75  50  41 NW14G23   30.08S
LONG PRAIRIE   FAIR      75  52  43 W13G21    30.10S
LITTLE FALLS   SUNNY     75  45  33 NW14G26   30.08S
LITCHFIELD     SUNNY     79  54  41 NW12G17   30.11S
BUFFALO        SUNNY     77  49  37 NW14G22   30.09F
MAPLE LAKE     SUNNY     77  57  50 NW10G20   30.10S
$$
MNZ037-044-045-052-053-311800-
   East Central Minnesota

CITY           SKY/WX    TMP DP  RH WIND       PRES   REMARKS
PRINCETON      SUNNY     79  52  38 W16G25    30.07S
MORA           SUNNY     73  50  43 NW16G23   30.06S
CAMBRIDGE      SUNNY     79  57  47 W14G22    30.04S
RUSH CITY      MOSUNNY   76  53  45 NW15G23   30.05S
MOOSE LAKE     PTSUNNY   73  52  46 W10       30.01S
HINCKLEY       FAIR      73  55  53 W14G24    30.04S
CLOQUET        MOSUNNY   73  48  40 W20G25    30.00S
MCGREGOR       MOSUNNY   73  52  46 W14G20    30.04S
$$
MNZ071>073-080-081-089-090-097-098-311800-
   Southwest Minnesota

CITY           SKY/WX    TMP DP  RH WIND       PRES   REMARKS
MONTEVIDEO     SUNNY     81  61  50 N8        30.14F
GRANITE FALLS  SUNNY     77  57  49 NW8       30.15S
CANBY          SUNNY     79  51  37 NW5       30.15S
MARSHALL       SUNNY     79  50  36 N6        30.16S
REDWOOD FALLS  SUNNY     80  57  45 NW12      30.12F
OLIVIA         SUNNY     73  55  53 NW9       30.12S
PIPESTONE      SUNNY     79  48  34 E6        30.17F
WINDOM         SUNNY     79  52  38 NW6       30.16S
WORTHINGTON    SUNNY     79  54  41 N8        30.17S
JACKSON        SUNNY     79  54  41 NW10G17   30.17S
SLAYTON        SUNNY     79  49  35 CALM      30.18F HAZE
$$
MNZ065>067-074>077-082>085-091>093-311800-
   South Central Minnesota

CITY           SKY/WX    TMP DP  RH WIND       PRES   REMARKS
MANKATO        SUNNY     77  55  47 NW9G16    30.12S
NEW ULM        SUNNY     77  55  47 W12       30.12S
ST JAMES       SUNNY     81  55  41 W10       30.14F
FAIRMONT       SUNNY     79  54  41 NW10      30.14S
GLENCOE        SUNNY     78  58  50 NW14      30.10S
FARIBAULT      SUNNY     75  57  53 NW10      30.11S
OWATONNA       SUNNY     77  55  47 NW13      30.11S
WASECA         SUNNY     77  57  50 W9G17     30.13S
ALBERT LEA     SUNNY     75  55  50 NW9       30.13S
$$
MNZ078>079-086>088-094>096-311800-
   Southeast Minnesota

CITY           SKY/WX    TMP DP  RH WIND       PRES   REMARKS
ROCHESTER      SUNNY     75  56  51 NW16G26   30.11S
RED WING       SUNNY     81  48  32 NW13G20   30.05S
STANTON        SUNNY     78  55  44 NW17      30.08S
DODGE CENTER   SUNNY     75  54  46 NW13      30.11S
WINONA         SUNNY     79  52  38 NW22G31   30.05S
AUSTIN         SUNNY     79  52  38 NW15      30.12S
PRESTON        SUNNY     74  52  45 NW16G22   30.10F
$$
ABBREVIATIONS USED IN REMARKS
   TC - TEMPERATURES IN CELSIUS
  WCI - WIND CHILL INDEX
   HX - HEAT INDEX
  VSB - VISIBILITY
$$


USA.gov is the U.S. government's official web portal to all federal, state and local government web resources and services.